Mission Valley North (654, 13840) Station Data

Red Flag Warning: No
Fire Weather Zone: 243
SDGE Region: Beach Cities
Lat/Lon: 32.781/-117.138

Observations

Time Wind Speed/Gust Temp(F) RH Fuel Moist Fuel Temp(F) Dewpt(F) Tmax(F) Tmin(F) Accum Precip 10-min Precip SL Press(mb)
4/26 2:40am 54 3 G 4 57° 85% 15.8% 55.19° 53° 60.2° 56.9° - - 1010.0
4/26 2:30am 62 2 G 3 58° 85% 15.4% 54.93° 53° 60.2° 56.9° - - 1011.0
4/26 2:20am 51 2 G 3 57° 84% 15.5% 55.08° 53° 60.2° 56.9° - - 1010.0
4/26 2:10am 62 3 G 4 57° 83% 15.5% 55.43° 52° 60.2° 56.9° - - 1011.0
4/26 2:00am 65 3 G 4 57° 83% 15.5% 55.56° 52° 60.2° 57° - - 1011.0
4/26 1:50am 63 3 G 4 58° 82% 15.2% 55.82° 52° 60.2° 57.3° - - 1011.0
4/26 1:40am 50 2 G 3 58° 82% 15.3% 55.35° 52° 60.2° 57.5° - - 1011.0
4/26 1:30am 55 3 G 4 58° 83% 15.3% 55.52° 53° 60.2° 57.5° - - 1011.0
4/26 1:20am 64 1 G 3 58° 84% 15.2% 55.43° 53° 60.2° 57.9° - - 1011.0
4/26 1:10am 0 0 G 0 59° 84% 15.1% 55.45° 54° 60.2° 58.3° - - 1011.0
4/26 1:00am 62 0 G 1 59° 84% 15.1% 56.11° 54° 60.2° 58.4° - - 1011.0
4/26 12:50am 120 0 G 1 59° 83% 15% 56.02° 54° 60.2° 58.5° - - 1011.0
4/26 12:40am 259 1 G 2 59° 82% 14.9% 56.34° 54° 60.2° 59° - - 1011.0
4/26 12:30am 312 1 G 1 60° 82% 14.9% 56.8° 54° 60.2° 59.2° - - 1012.0
4/26 12:20am 350 1 G 1 60° 82% 14.9% 56.94° 54° 60.2° 59.3° - - 1012.0
4/26 12:10am 66 1 G 2 60° 82% 14.7% 56.82° 54° 60.2° 59.4° - - 1011.0
4/26 12:00am 110 1 G 1 60° 82% 14.7% 57.05° 54° 68.5° 59° - - 1011.0
4/25 11:50pm 120 1 G 3 60° 81% 14.6% 57.33° 54° 68.5° 59° - - 1011.0
4/25 11:40pm 156 1 G 3 60° 81% 14.6% 57.37° 54° 68.5° 59° - - 1012.0
4/25 11:30pm 239 0 G 2 60° 81% 14.5% 57.31° 54° 68.5° 59° - - 1012.0
4/25 11:20pm 295 1 G 2 60° 81% 14.4% 57.4° 54° 68.5° 59° - - 1012.0
4/25 11:10pm 288 1 G 2 60° 81% 14.4% 57.57° 54° 68.5° 59° - - 1012.0
4/25 11:00pm 275 1 G 2 60° 81% 14.3% 57.23° 54° 68.5° 59° - - 1012.0
4/25 10:50pm 73 0 G 1 60° 81% 14.2% 57.34° 54° 68.5° 59° - - 1012.0
4/25 10:40pm 83 1 G 2 60° 81% 14.1% 57.62° 54° 68.5° 59° - - 1012.0
4/25 10:30pm 113 2 G 3 60° 81% 14.1% 57.53° 54° 68.5° 59° - - 1012.0
4/25 10:20pm 293 0 G 1 60° 81% 14% 57.38° 54° 68.5° 59° - - 1012.0
4/25 10:10pm 41 1 G 2 60° 81% 13.9% 57.81° 54° 68.5° 59° - - 1012.0
4/25 10:00pm 76 2 G 3 60° 80% 13.8% 58.34° 54° 68.5° 59° - - 1012.0
4/25 9:50pm 320 1 G 2 61° 80% 13.7% 58.72° 54° 68.5° 59° - - 1012.0
4/25 9:40pm 268 2 G 4 61° 80% 13.7% 59.35° 54° 68.5° 59° - - 1012.0
4/25 9:30pm 274 3 G 4 61° 79% 13.6% 59.51° 54° 68.5° 59° - - 1012.0
4/25 9:20pm 263 3 G 5 61° 79% 13.5% 59.68° 54° 68.5° 59° - - 1012.0
4/25 9:10pm 271 3 G 5 61° 79% 13.5% 59.8° 54° 68.5° 59° - - 1012.0
4/25 9:00pm 275 2 G 4 61° 79% 13.4% 59.83° 55° 68.5° 59° - - 1012.0
4/25 8:50pm 280 3 G 6 61° 79% 13.3% 60.1° 55° 68.5° 59° - - 1012.0
4/25 8:40pm 266 3 G 4 61° 79% 13.2% 60.34° 55° 68.5° 59° - - 1011.0
4/25 8:30pm 245 3 G 5 61° 79% 13% 60.36° 55° 68.5° 59° - - 1011.0
4/25 8:20pm 263 4 G 7 62° 79% 13% 60.88° 55° 68.5° 59° - - 1011.0
4/25 8:10pm 261 4 G 6 62° 79% 12.9% 61.35° 55° 68.5° 59° - - 1011.0
4/25 8:00pm 261 4 G 6 62° 78% 12.7% 61.41° 55° 68.5° 59° - - 1011.0
4/25 7:50pm 255 4 G 7 62° 78% 12.6% 61.82° 55° 68.5° 59° - - 1011.0
4/25 7:40pm 268 4 G 7 63° 74% 12.5% 62.17° 54° 68.5° 59° - - 1010.0
4/25 7:30pm 262 4 G 7 63° 71% 12.5% 62.75° 53° 68.5° 59° - - 1010.0
4/25 7:20pm 291 3 G 6 63° 68% 12.3% 62.96° 52° 68.5° 59° - - 1010.0
4/25 7:10pm 309 2 G 6 64° 66% 12.3% 63.52° 52° 68.5° 59° - - 1010.0
4/25 7:00pm 255 5 G 8 63° 72% 12.3% 64.43° 54° 68.5° 59° - - 1010.0
4/25 6:50pm 237 5 G 9 64° 71% 12.2% 65.05° 54° 68.5° 59° - - 1010.0
4/25 6:40pm 248 5 G 9 64° 70% 12.1% 65.83° 54° 68.5° 59° - - 1010.0
4/25 6:30pm 258 6 G 9 64° 68% 12.1% 66.81° 53° 68.5° 59° - - 1010.0
4/25 6:20pm 252 7 G 11 64° 65% 12% 66.73° 52° 68.5° 59° - - 1010.0
4/25 6:10pm 260 6 G 11 65° 62% 12% 67.85° 52° 68.5° 59° - - 1010.0
4/25 6:00pm 267 6 G 11 65° 59% 12% 68.51° 50° 68.5° 59° - - 1010.0
4/25 5:50pm 255 5 G 10 66° 57% 12.1% 70.65° 50° 68.5° 59° - - 1010.0
4/25 5:40pm 256 7 G 11 65° 58% 12.2% 70.89° 50° 68.5° 59° - - 1011.0
4/25 5:30pm 258 7 G 13 65° 59% 12.1% 70.67° 50° 68.5° 59° - - 1011.0
4/25 5:20pm 264 8 G 13 65° 58% 12.3% 71.45° 50° 68.5° 59° - - 1010.0
4/25 5:10pm 265 6 G 11 65° 60% 12.2% 70.45° 51° 68.5° 59° - - 1010.0
4/25 5:00pm 271 7 G 14 65° 60% 12.2% 69.9° 51° 68.5° 59° - - 1010.0
4/25 4:50pm 269 9 G 13 65° 60% 12.2% 70.48° 51° 68.5° 59° - - 1010.0
4/25 4:40pm 264 7 G 14 65° 62% 12.1% 69.83° 52° 68.5° 59° - - 1010.0
4/25 4:30pm 272 7 G 13 65° 62% 12.2% 70.82° 52° 68.5° 59° - - 1010.0
4/25 4:20pm 269 9 G 14 65° 62% 12.1% 70.38° 52° 68.5° 59° - - 1010.0
4/25 4:10pm 263 8 G 17 66° 62% 12.1% 70.99° 52° 68.5° 59° - - 1010.0
4/25 4:00pm 264 7 G 14 66° 62% 12.2% 73.61° 53° 68.5° 59° - - 1011.0
4/25 3:50pm 258 8 G 13 67° 62% 12.4% 74.79° 53° 68.5° 59° - - 1011.0
4/25 3:40pm 255 8 G 14 67° 61% 12.5% 75.28° 53° 68.5° 59° - - 1011.0
4/25 3:30pm 260 8 G 16 67° 61% 12.5% 75.62° 53° 68.5° 59° - - 1010.0
4/25 3:20pm 259 8 G 13 66° 61% 12.6% 75.51° 52° 68.5° 59° - - 1010.0
4/25 3:10pm 254 8 G 14 66° 63% 12.5% 74.74° 53° 68.5° 59° - - 1010.0
4/25 3:00pm 235 10 G 15 65° 65% 12.5% 73.9° 53° 68.5° 59° - - 1010.0
4/25 2:50pm 255 9 G 14 66° 64% 12.5% 74.38° 53° 68.5° 59° - - 1011.0
4/25 2:40pm 251 10 G 15 66° 65% 12.7% 75.5° 54° 68.5° 59° - - 1011.0
4/25 2:30pm 249 10 G 15 66° 64% 12.7% 76.06° 54° 68.5° 59° - - 1011.0
4/25 2:20pm 253 9 G 17 67° 61% 12.7% 77.78° 53° 68.5° 59° - - 1011.0
4/25 2:10pm 255 9 G 14 66° 62% 12.8% 79.14° 53° 68.5° 59° - - 1011.0
4/25 2:00pm 253 9 G 15 66° 64% 12.9% 80° 53° 68.5° 59° - - 1011.0
4/25 1:50pm 264 9 G 16 65° 67% 12.9% 79.7° 54° 68.5° 59° - - 1012.0
4/25 1:40pm 269 8 G 15 66° 67% 12.9% 78.94° 55° 68.5° 59° - - 1012.0
4/25 1:30pm 271 9 G 15 66° 69% 12.9% 79.55° 55° 68.5° 59° - - 1012.0
4/25 1:20pm 280 8 G 13 66° 67% 12.9% 77.45° 55° 68.5° 59° - - 1011.0
4/25 1:10pm 264 9 G 14 65° 70% 12.9% 78.02° 55° 68.5° 59° - - 1011.0
4/25 1:00pm 259 9 G 15 66° 68% 12.9% 77.62° 55° 68.5° 59° - - 1011.0
4/25 12:50pm 275 7 G 12 67° 67% 12.9% 80.3° 56° 68.5° 59° - - 1012.0
4/25 12:40pm 263 8 G 15 67° 67% 13.1% 82.1° 55° 68.5° 59° - - 1011.0
4/25 12:30pm 274 8 G 15 67° 65% 13.1% 82.2° 55° 68.5° 59° - - 1011.0
4/25 12:20pm 245 8 G 15 67° 64% 13.1% 79.85° 54° 68.3° 59° - - 1012.0
4/25 12:10pm 217 9 G 15 67° 61% 12.9% 76.53° 53° 67.8° 59° - - 1012.0
4/25 12:00pm 241 8 G 15 66° 62% 13.1% 77.67° 53° 67.5° 59° - - 1012.0
4/25 11:50am 227 9 G 13 67° 62% 13.3% 81.5° 53° 67.5° 59° - - 1012.0
4/25 11:40am 213 8 G 12 66° 62% 13.5% 79.93° 53° 67.3° 59° - - 1012.0
4/25 11:30am 237 9 G 15 66° 63% 13.6% 76.5° 53° 66.8° 59° - - 1012.0
4/25 11:20am 227 8 G 13 66° 63% 13.7% 77.48° 53° 66.6° 59° - - 1012.0
4/25 11:10am 225 9 G 13 65° 64% 13.9% 77.1° 53° 66.6° 59° - - 1012.0
4/25 11:00am 218 8 G 13 65° 64% 14.1% 76.87° 53° 66.6° 59° - - 1012.0
4/25 10:50am 219 8 G 13 65° 65% 14.2% 74.53° 53° 66.6° 59° - - 1012.0
4/25 10:40am 219 7 G 12 64° 69% 14.3% 73.13° 54° 66.6° 59° - - 1012.0
4/25 10:30am 239 7 G 12 64° 69% 14.2% 70.64° 54° 66.6° 59° - - 1012.0
4/25 10:20am 207 5 G 9 66° 65% 14.4% 75.15° 54° 66.6° 59° - - 1012.0
4/25 10:10am 198 6 G 10 65° 66% 14.5% 74.85° 54° 66° 59° - - 1012.0
4/25 10:00am 168 6 G 11 65° 68% 14.7% 74.35° 54° 65.6° 59° - - 1012.0
4/25 9:50am 185 7 G 12 64° 71% 14.8% 75.27° 55° 65.1° 59° - - 1012.0
4/25 9:40am 192 7 G 13 64° 75% 15% 73.33° 55° 64.6° 59° - - 1012.0
4/25 9:30am 181 6 G 11 62° 79% 15.1% 68.77° 56° 63.1° 59° - - 1012.0
4/25 9:20am 180 7 G 12 61° 81% 15% 65.54° 55° 62.6° 59° - - 1012.0
4/25 9:10am 182 7 G 11 61° 80% 15.1% 64.69° 55° 62.6° 59° - - 1012.0
4/25 9:00am 189 7 G 12 61° 80% 15.1% 65.03° 55° 62.6° 59° - - 1012.0
4/25 8:50am 198 8 G 14 62° 80% 15% 65.56° 55° 62.6° 59° - - 1011.0
4/25 8:40am 197 8 G 13 62° 78% 15% 68.22° 55° 62.6° 59° - - 1011.0
4/25 8:30am 182 8 G 13 62° 78% 15.2% 67.38° 55° 62.6° 59° - - 1012.0
4/25 8:20am 193 8 G 13 62° 78% 15.1% 66.99° 55° 62.4° 59° - - 1011.0
4/25 8:10am 207 5 G 9 62° 79% 15.4% 67.36° 55° 62.4° 59° - - 1011.0
4/25 8:00am 216 7 G 13 61° 80% 15.5% 66.08° 55° 61.5° 59° - - 1011.0
4/25 7:50am 199 8 G 14 61° 80% 15.3% 64.31° 55° 61.5° 59° - - 1011.0
4/25 7:40am 196 9 G 14 61° 81% 15.6% 64.93° 55° 61.5° 59° - - 1011.0
4/25 7:30am 194 8 G 13 61° 80% 15.3% 63.69° 55° 61.5° 59° - - 1011.0
4/25 7:20am 191 6 G 11 61° 80% 15.4% 63.91° 55° 61.5° 59° - - 1011.0
4/25 7:10am 187 5 G 10 60° 82% 15.4% 62.1° 55° 61.1° 59° - - 1011.0
4/25 7:00am 180 7 G 11 60° 83% 15.6% 61.04° 55° 61.1° 59° - - 1010.0
4/25 6:50am 176 7 G 10 60° 83% 15.4% 60.38° 55° 61.1° 59° - - 1010.0
4/25 6:40am 181 5 G 9 60° 83% 15.6% 60.44° 55° 61.1° 59° - - 1010.0
4/25 6:30am 184 6 G 12 60° 84% 15.5% 60.02° 55° 61.1° 59° - - 1010.0
4/25 6:20am 185 7 G 11 60° 84% 15.5% 59.84° 55° 61.1° 59° - - 1010.0
4/25 6:10am 190 6 G 12 60° 84% 15.5% 59.48° 55° 61.1° 59° - - 1010.0
4/25 6:00am 185 6 G 11 60° 83% 15.1% 59.15° 55° 61.1° 59° - - 1010.0
4/25 5:50am 186 6 G 12 60° 82% 15.3% 59.36° 54° 61.1° 59° - - 1010.0
4/25 5:40am 184 6 G 12 60° 82% 15% 59.57° 54° 61.1° 59° - - 1010.0
4/25 5:30am 176 6 G 10 60° 82% 15.2% 59.34° 54° 61.1° 59° - - 1010.0
4/25 5:20am 182 5 G 9 60° 82% 15.1% 58.69° 54° 61.1° 59° - - 1010.0
4/25 5:10am 187 6 G 11 59° 82% 15.1% 58.46° 54° 61.1° 59° - - 1010.0
4/25 5:00am 182 5 G 8 59° 81% 15% 58.57° 54° 61.1° 59° - - 1010.0
4/25 4:50am 174 6 G 9 59° 81% 15% 58.65° 54° 61.1° 59° - - 1010.0
4/25 4:40am 180 4 G 7 60° 81% 14.9% 58.48° 54° 61.1° 59° - - 1010.0
4/25 4:30am 168 6 G 9 60° 81% 14.9% 58.94° 54° 61.1° 59° - - 1010.0
4/25 4:20am 163 4 G 6 60° 80% 14.8% 59.09° 54° 61.1° 59° - - 1010.0
4/25 4:10am 176 4 G 6 60° 80% 14.8% 59.43° 54° 61.1° 59° - - 1010.0
4/25 4:00am 190 4 G 8 60° 80% 14.8% 59.59° 54° 61.1° 59° - - 1010.0
4/25 3:50am 204 4 G 6 60° 81% 14.8% 59.82° 54° 61.1° 59° - - 1010.0
4/25 3:40am 193 3 G 6 60° 81% 14.8% 60.03° 54° 61.1° 59° - - 1010.0
4/25 3:30am 216 5 G 7 60° 82% 14.7% 59.86° 54° 61.1° 59° - - 1010.0
4/25 3:20am 212 6 G 9 60° 82% 14.7% 59.8° 54° 61.1° 59° - - 1010.0
4/25 3:10am 213 5 G 8 60° 83% 14.7% 59.72° 55° 61.1° 59° - - 1010.0
4/25 3:00am 214 4 G 5 60° 85% 14.6% 59.32° 55° 61.1° 59° - - 1010.0
4/25 2:50am 191 4 G 7 59° 85% 14.5% 58.93° 55° 61.1° 59° - - 1010.0
4/25 2:40am 185 5 G 10 60° 82% 14.4% 59.2° 54° 61.1° 59.1° - - 1010.0
4/25 2:30am 200 6 G 11 60° 79% 14.3% 60.14° 53° 61.1° 59.5° - - 1010.0
4/25 2:20am 193 7 G 11 60° 79% 14.3% 60.34° 53° 61.1° 59.5° - - 1010.0
4/25 2:10am 182 7 G 11 60° 77% 14.3% 60.32° 53° 61.1° 59.7° - - 1010.0
4/25 2:00am 197 7 G 12 60° 76% 14.2% 60.42° 53° 61.1° 59.8° - - 1010.0
4/25 1:50am 193 7 G 12 60° 75% 14.1% 60.51° 52° 61.1° 59.9° - - 1010.0
4/25 1:40am 190 5 G 9 60° 75% 14.1% 60.3° 52° 61.1° 59.9° - - 1010.0
4/25 1:30am 201 6 G 8 60° 76% 14.1% 60.22° 53° 61.1° 59.9° - - 1010.0
4/25 1:20am 206 6 G 9 60° 74% 14.1% 60.26° 52° 61.1° 59.9° - - 1010.0
4/25 1:10am 200 6 G 8 60° 73% 14.1% 59.91° 52° 61.1° 59.9° - - 1010.0
4/25 1:00am 194 5 G 7 60° 73% 14% 59.55° 52° 61.1° 59.9° - - 1011.0
4/25 12:50am 219 4 G 8 60° 74% 14% 59.82° 52° 61.1° 60° - - 1010.0
4/25 12:40am 224 6 G 9 60° 74% 14% 60.28° 52° 61.1° 60° - - 1010.0
4/25 12:30am 229 7 G 11 60° 75% 14% 60.18° 52° 61.1° 60° - - 1010.0
4/25 12:20am 222 7 G 11 60° 75% 14% 60.26° 53° 61.1° 60° - - 1010.0
4/25 12:10am 227 5 G 8 60° 76% 13.9% 60.51° 53° 60.9° 60° - - 1010.0
4/25 12:00am 220 5 G 8 60° 77% 13.9% 60.69° 53° 68.2° 58.9° - - 1010.0
4/24 11:50pm 210 5 G 8 61° 77% 13.9% 60.9° 53° 68.2° 58.9° - - 1011.0
4/24 11:40pm 211 5 G 8 60° 78% 14% 60.8° 53° 68.2° 58.9° - - 1011.0
4/24 11:30pm 206 7 G 10 60° 77% 13.8% 60.74° 53° 68.2° 58.9° - - 1011.0
4/24 11:20pm 229 6 G 10 60° 76% 13.8% 60.67° 53° 68.2° 58.9° - - 1011.0
4/24 11:10pm 229 6 G 11 61° 75% 13.7% 60.84° 53° 68.2° 58.9° - - 1011.0
4/24 11:00pm 239 5 G 9 61° 74% 13.7% 60.7° 52° 68.2° 58.9° - - 1011.0
4/24 10:50pm 222 4 G 7 60° 75% 13.7% 60.28° 52° 68.2° 58.9° - - 1011.0
4/24 10:40pm 231 6 G 10 60° 75% 13.6% 59.95° 52° 68.2° 58.9° - - 1011.0
4/24 10:30pm 228 7 G 10 60° 75% 13.6% 59.74° 52° 68.2° 58.9° - - 1011.0
4/24 10:20pm 212 7 G 11 60° 76% 13.6% 60.26° 53° 68.2° 58.9° - - 1011.0
4/24 10:10pm 223 6 G 10 61° 76% 13.5% 60.78° 53° 68.2° 58.9° - - 1011.0
4/24 10:00pm 224 7 G 11 61° 75% 13.5% 60.88° 53° 68.2° 58.9° - - 1011.0
4/24 9:50pm 231 6 G 9 61° 76% 13.6% 60.69° 53° 68.2° 58.9° - - 1011.0
4/24 9:40pm 208 6 G 10 61° 79% 13.5% 61.25° 54° 68.2° 58.9° - - 1011.0
4/24 9:30pm 198 6 G 10 61° 79% 13.4% 61.66° 55° 68.2° 58.9° - - 1011.0
4/24 9:20pm 191 5 G 8 61° 78% 13.4% 61.68° 54° 68.2° 58.9° - - 1011.0
4/24 9:10pm 205 6 G 9 62° 75% 13.3% 62.03° 54° 68.2° 58.9° - - 1011.0
4/24 9:00pm 182 3 G 5 62° 74% 13.3% 62.03° 53° 68.2° 58.9° - - 1011.0
4/24 8:50pm 190 4 G 7 62° 73% 13.2% 62.05° 53° 68.2° 58.9° - - 1011.0
4/24 8:40pm 191 3 G 6 62° 74% 13.2% 62.19° 53° 68.2° 58.9° - - 1011.0
4/24 8:30pm 210 4 G 7 61° 75% 13.2% 61.94° 54° 68.2° 58.9° - - 1011.0
4/24 8:20pm 195 4 G 7 62° 75% 13.1% 62.05° 54° 68.2° 58.9° - - 1011.0
4/24 8:10pm 191 5 G 9 61° 76% 13.1% 62.23° 54° 68.2° 58.9° - - 1011.0
4/24 8:00pm 221 6 G 9 61° 75% 13% 62.25° 53° 68.2° 58.9° - - 1011.0
4/24 7:50pm 212 6 G 9 62° 74% 12.9% 62.29° 53° 68.2° 58.9° - - 1011.0
4/24 7:40pm 224 6 G 9 62° 74% 12.9% 62.31° 53° 68.2° 58.9° - - 1011.0
4/24 7:30pm 232 6 G 9 62° 75% 12.8% 62.41° 54° 68.2° 58.9° - - 1011.0
4/24 7:20pm 217 5 G 10 62° 74% 12.8% 63.1° 54° 68.2° 58.9° - - 1011.0
4/24 7:10pm 217 4 G 7 62° 74% 12.8% 63.58° 54° 68.2° 58.9° - - 1011.0
4/24 7:00pm 223 6 G 8 62° 75% 12.8% 63.64° 54° 68.2° 58.9° - - 1011.0
4/24 6:50pm 214 6 G 10 62° 75% 12.7% 63.96° 54° 68.2° 58.9° - - 1011.0
4/24 6:40pm 220 7 G 10 62° 75% 12.7% 64.41° 54° 68.2° 58.9° - - 1011.0
4/24 6:30pm 212 7 G 11 63° 75% 12.6% 64.81° 55° 68.2° 58.9° - - 1011.0
4/24 6:20pm 223 7 G 11 63° 73% 12.6% 65.73° 54° 68.2° 58.9° - - 1010.0
4/24 6:10pm 246 5 G 8 63° 73% 12.5% 66.45° 54° 68.2° 58.9° - - 1011.0
4/24 6:00pm 257 5 G 11 63° 72% 12.5% 66.82° 54° 68.2° 58.9° - - 1010.0